Location: Sebastopol
(38.4021°N, 122.8239°W)
Time: 15:19:39
(UTC+00:00)

deb Chang Zheng 4 - Pass Details

Date: 29 October 2020
Orbit: 602 x 624 km, 98.6° (Epoch: 01 December)

Event Time Altitude Azimuth Distance (km) Brightness Sun altitude
Rises 13:37:58 0° 1° (N) 2,864 6.9 -11.8°
Reaches altitude 10° 13:40:21 10° 349° (N) 1,959 5.9 -11.3°
Maximum altitude 13:43:58 28° 291° (WNW) 1,150 4.4 -10.6°
Drops below altitude 10° 13:47:36 10° 232° (SW) 1,957 5.7 -9.9°
Sets 13:50:00 0° 221° (SW) 2,861 6.7 -9.4°
